Jaipur / Sanganer, India

11:12 AM IST on March 25, 2017 (GMT +0530)
Jaipur / Sanganer

Weather History for 42348 - December, 2013

Change the Weather History Date:

Sunday, December 1, 2013

  Actual Average Record
Temperature  
Mean Temperature 67 °F -  
Max Temperature 83 °F - - ()
Min Temperature 51 °F - - ()
Cooling Degree Days 2    
Growing Degree Days 17 (Base 50)    
Moisture  
Dew Point 41 °F    
Average Humidity 38    
Maximum Humidity 63    
Minimum Humidity 11    
Precipitation  
Precipitation 0.00 in - - ()
Sea Level Pressure  
Sea Level Pressure 30.03 in    
Wind  
Wind Speed 1 mph ()    
Max Wind Speed 6 mph    
Max Gust Speed -    
Visibility 1.5 miles    
Events      
T = Trace of Precipitation, MM = Missing Value Source: Averaged Metar Reports

Daily Weather History Graph

Daily Weather History Graph

Search for Another Location

Airport or City:

Trip Planner

Search our weather history database for the weather conditions in past years. The results will help you decide how hot, cold, wet, or windy it might be!

Date:

Astronomy

Dec. 01, 2013 Rise Set
Actual Time 6:58 AM IST 5:33 PM IST
Civil Twilight 6:33 AM IST 5:58 PM IST
Nautical Twilight 6:04 AM IST 6:26 PM IST
Astronomical Twilight 5:36 AM IST 6:55 PM IST
Moon 4:54 AM IST (12/1) 4:13 PM IST (12/1)
Length of Visible Light 11h 25m
Length of Day
10h 34m
Waning Crescent, 4% of the Moon is Illuminated
Dec 1
Waning Crescent
Dec 3
New
Dec 9
First Quarter
Dec 17
Full
Dec 25
Last Quarter

Hourly Weather History & Observations

Time (IST) Temp. Dew Point Humidity Pressure Visibility Wind Dir Wind Speed Gust Speed Precip Events Conditions
12:00 AM 59.0 °F 42.8 °F 55% 30.04 in 1.2 mi Calm Calm - N/A   Smoke
1:00 AM 57.2 °F 42.8 °F 59% 30.04 in 1.2 mi Calm Calm - N/A   Smoke
2:00 AM 57.2 °F 42.8 °F 59% 30.04 in 1.2 mi Calm Calm - N/A   Smoke
2:30 AM 59 °F 44 °F 47% 29.98 in 1 mi Calm Calm - -   Smoke
3:00 AM 57.2 °F 41.0 °F 55% 30.04 in 1.2 mi Calm Calm - N/A   Smoke
4:00 AM 57.2 °F 41.0 °F 55% 30.04 in 1.2 mi Calm Calm - N/A   Smoke
5:00 AM 55.4 °F 42.8 °F 63% 30.01 in 1.2 mi Calm Calm - N/A   Smoke
5:30 AM 55 °F 44 °F 58% 30.02 in 1 mi Calm Calm - -   Smoke
6:00 AM 55.4 °F 41.0 °F 58% 30.04 in 1.2 mi Calm Calm - N/A   Smoke
8:00 AM 59.0 °F 42.8 °F 55% 30.06 in 1.2 mi Calm Calm - N/A   Smoke
8:30 AM 62 °F 45 °F 43% 30.06 in 1 mi Calm Calm - -   Smoke
9:00 AM 71.6 °F 44.6 °F 38% 30.09 in 1.2 mi Calm Calm - N/A   Smoke
11:00 AM 77.0 °F 41.0 °F 28% 30.12 in 1.9 mi WSW 4.6 mph - N/A   Haze
11:30 AM 81 °F 44 °F 17% 30.03 in 2 mi SW 4.6 mph - -  
12:00 PM 80.6 °F 33.8 °F 18% 30.09 in 1.9 mi Variable 4.6 mph - N/A   Haze
1:00 PM 78.8 °F 35.6 °F 21% 30.06 in 2.5 mi Variable 5.8 mph - N/A   Haze
2:00 PM 80.6 °F 33.8 °F 18% 30.04 in 2.5 mi West 4.6 mph - N/A   Haze
2:30 PM 80 °F 35 °F 11% 29.96 in 2 mi SW 4.6 mph - -   Haze
3:00 PM 80.6 °F 33.8 °F 18% 30.01 in 2.5 mi SW 5.8 mph - N/A   Haze
4:00 PM 80.6 °F 33.8 °F 18% 30.01 in 2.5 mi Variable 2.3 mph - N/A   Haze
5:00 PM 77.0 °F 35.6 °F 22% 30.01 in 2.5 mi WSW 4.6 mph - N/A   Haze
5:30 PM 77 °F 38 °F 14% 29.95 in 1 mi 2.3 mph - -   Haze
6:00 PM 69.8 °F 41.0 °F 35% 30.01 in 2.2 mi Calm Calm - N/A   Haze
7:00 PM 68.0 °F 41.0 °F 37% 30.04 in 1.9 mi Calm Calm - N/A   Haze
8:00 PM 64.4 °F 42.8 °F 45% 30.04 in 0.9 mi Calm Calm - N/A   Smoke
8:30 PM 64 °F 41 °F 32% 30.03 in 1 mi Calm Calm - -   Smoke
9:00 PM 64.4 °F 42.8 °F 45% 30.06 in 0.9 mi Calm Calm - N/A   Smoke
10:00 PM 64.4 °F 42.8 °F 45% 30.04 in 1.2 mi Calm Calm - N/A   Smoke
11:00 PM 62.6 °F 42.8 °F 48% 30.04 in 1.2 mi Calm Calm - N/A   Haze
11:30 PM 64 °F 42 °F 34% 30.01 in 1 mi Calm Calm - -   Smoke